Racine, WI

7:05 AM CDT on April 30, 2017 (GMT -0500)
Batten

Weather History for KRAC - September, 2012

Change the Weather History Date:

Wednesday, September 26, 2012

  Actual Average Record
Temperature  
Mean Temperature 58 °F -  
Max Temperature 63 °F 67 °F 88 °F (1998)
Min Temperature 52 °F 49 °F 35 °F (1984)
Degree Days  
Heating Degree Days 8    
Growing Degree Days 8 (Base 50)    
Moisture  
Dew Point 48 °F    
Average Humidity 74    
Maximum Humidity 96    
Minimum Humidity 51    
Precipitation  
Precipitation 0.00 in - - ()
Sea Level Pressure  
Sea Level Pressure 30.05 in    
Wind  
Wind Speed 10 mph (NNE)    
Max Wind Speed 16 mph    
Max Gust Speed 24 mph    
Visibility 10 miles    
Events      
Averages and records for this station are not official NWS values.
T = Trace of Precipitation, MM = Missing Value Source: NWS Daily Summary

Daily Weather History Graph

Daily Weather History Graph

Search for Another Location

Airport or City:

Trip Planner

Search our weather history database for the weather conditions in past years. The results will help you decide how hot, cold, wet, or windy it might be!

Date:

Astronomy

Sep. 26, 2012 Rise Set
Actual Time 6:43 AM CDT 6:40 PM CDT
Civil Twilight 6:15 AM CDT 7:08 PM CDT
Nautical Twilight 5:42 AM CDT 7:41 PM CDT
Astronomical Twilight 5:08 AM CDT 8:14 PM CDT
Moon 4:43 PM CDT (9/26) 3:04 AM CDT (9/26)
Length of Visible Light 12h 53m
Length of Day
11h 57m
Waxing Gibbous, 88% of the Moon is Illuminated
Sep 26
Waxing Gibbous
Sep 29
Full
Oct 8
Last Quarter
Oct 15
New
Oct 21
First Quarter

Hourly Weather History & Observations

Time (CDT) Temp. Dew Point Humidity Pressure Visibility Wind Dir Wind Speed Gust Speed Precip Events Conditions
12:53 AM 55.0 °F 54.0 °F 96% 29.91 in 10.0 mi North 5.8 mph - N/A   Clear
1:53 AM 55.9 °F 54.0 °F 93% 29.91 in 10.0 mi North 5.8 mph - N/A   Clear
3:53 AM 55.0 °F 53.1 °F 93% 29.92 in 10.0 mi North 9.2 mph - N/A   Clear
4:11 AM 55.4 °F 53.6 °F 94% 29.92 in 10.0 mi North 11.5 mph - N/A   Scattered Clouds
4:37 AM 55.4 °F 53.6 °F 94% 29.93 in 10.0 mi North 11.5 mph - N/A   Mostly Cloudy
4:53 AM 55.0 °F 53.1 °F 93% 29.94 in 10.0 mi North 9.2 mph - N/A   Mostly Cloudy
5:34 AM 53.6 °F 51.8 °F 94% 29.97 in 10.0 mi North 9.2 mph - N/A   Mostly Cloudy
5:53 AM 53.1 °F 51.1 °F 93% 29.97 in 10.0 mi North 10.4 mph - N/A   Scattered Clouds
6:53 AM 52.0 °F 50.0 °F 93% 29.98 in 10.0 mi North 11.5 mph - N/A   Clear
7:53 AM 53.1 °F 50.0 °F 89% 30.01 in 10.0 mi North 10.4 mph - N/A   Clear
8:53 AM 55.9 °F 51.1 °F 84% 30.04 in 10.0 mi North 10.4 mph - N/A   Clear
9:53 AM 60.1 °F 52.0 °F 75% 30.06 in 10.0 mi North 13.8 mph 20.7 mph N/A   Clear
10:53 AM 60.1 °F 51.1 °F 72% 30.07 in 10.0 mi NNE 16.1 mph 24.2 mph N/A   Clear
11:53 AM 61.0 °F 50.0 °F 67% 30.09 in 10.0 mi North 15.0 mph 24.2 mph N/A   Clear
12:53 PM 62.1 °F 48.0 °F 60% 30.08 in 10.0 mi North 15.0 mph - N/A   Clear
1:53 PM 62.1 °F 46.0 °F 56% 30.09 in 10.0 mi NNE 15.0 mph 20.7 mph N/A   Clear
2:53 PM 63.0 °F 46.9 °F 56% 30.09 in 10.0 mi NE 13.8 mph - N/A   Clear
3:53 PM 61.0 °F 44.1 °F 54% 30.10 in 10.0 mi NE 16.1 mph 20.7 mph N/A   Clear
4:53 PM 59.0 °F 44.1 °F 58% 30.12 in 10.0 mi NNE 12.7 mph - N/A   Clear
5:53 PM 57.0 °F 41.0 °F 55% 30.14 in 10.0 mi NNE 13.8 mph - N/A   Clear
7:53 PM 54.0 °F 39.9 °F 59% 30.18 in 10.0 mi NNE 9.2 mph - N/A   Clear
8:53 PM 54.0 °F 39.9 °F 59% 30.19 in 10.0 mi NNE 11.5 mph - N/A   Clear
9:53 PM 54.0 °F 39.9 °F 59% 30.19 in 10.0 mi NNE 9.2 mph - N/A   Clear
10:53 PM 54.0 °F 39.0 °F 57% 30.21 in 10.0 mi NE 10.4 mph - N/A   Clear
11:53 PM 54.0 °F 36.0 °F 51% 30.20 in 10.0 mi NNE 10.4 mph - N/A   Clear